Beaufort, NC

12:52 AM EST on February 25, 2017 (GMT -0500)
Piney Island

Weather History for KNBT - March, 2014

Change the Weather History Date:

Tuesday, March 4, 2014

  Actual Average (KMRH) Record (KMRH)
Temperature  
Mean Temperature 34 °F -  
Max Temperature 37 °F 62 °F 74 °F (1951)
Min Temperature 30 °F 42 °F 16 °F (1980)
Degree Days  
Heating Degree Days 32    
Moisture  
Dew Point 31 °F    
Average Humidity 89    
Maximum Humidity 96    
Minimum Humidity 82    
Precipitation  
Precipitation 0.00 in - - ()
Sea Level Pressure  
Sea Level Pressure 30.22 in    
Wind  
Wind Speed 18 mph (North)    
Max Wind Speed 22 mph    
Max Gust Speed 32 mph    
Averages and records for this station are not official NWS values.
T = Trace of Precipitation, MM = Missing Value Source: NWS Daily Summary

Daily Weather History Graph

Daily Weather History Graph

Search for Another Location

Airport or City:

Trip Planner

Search our weather history database for the weather conditions in past years. The results will help you decide how hot, cold, wet, or windy it might be!

Date:

Astronomy

Mar. 04, 2014 Rise Set
Actual Time 6:31 AM EST 6:04 PM EST
Civil Twilight 6:06 AM EST 6:29 PM EST
Nautical Twilight 5:36 AM EST 6:58 PM EST
Astronomical Twilight 5:07 AM EST 7:28 PM EST
Moon 8:25 AM EST (3/4) 9:58 PM EST (3/4)
Length of Visible Light 12h 23m
Length of Day
11h 32m
Waxing Crescent, 14% of the Moon is Illuminated
Mar 4
Waxing Crescent
Mar 8
First Quarter
Mar 16
Full
Mar 23
Last Quarter
Mar 30
New

Hourly Weather History & Observations

Time (EST) Temp. Windchill Dew Point Humidity Pressure Visibility Wind Dir Wind Speed Gust Speed Precip Events Conditions
12:56 AM 30.9 °F 18.4 °F 27.0 °F 85% 30.20 in - North 20.7 mph 32.2 mph N/A   Overcast
1:56 AM 30.0 °F 16.9 °F 27.0 °F 88% 30.19 in - North 21.9 mph 32.2 mph N/A   Overcast
2:56 AM 30.0 °F 17.2 °F 26.1 °F 85% 30.20 in - North 20.7 mph 31.1 mph N/A   Overcast
3:56 AM 30.0 °F 18.3 °F 27.0 °F 88% 30.20 in - North 17.3 mph 27.6 mph N/A   Overcast
4:56 AM 30.9 °F 20.2 °F 27.0 °F 85% 30.24 in - North 15.0 mph 25.3 mph N/A   Overcast
5:56 AM 30.9 °F 19.4 °F 28.0 °F 89% 30.24 in - North 17.3 mph - N/A   Overcast
6:56 AM 32.0 °F 20.5 °F 28.0 °F 85% 30.25 in - North 18.4 mph - N/A   Overcast
7:56 AM 32.0 °F 21.2 °F 28.9 °F 88% 30.24 in - North 16.1 mph 23.0 mph N/A   Overcast
8:56 AM 33.1 °F 22.2 °F 28.9 °F 85% 30.25 in - North 17.3 mph - N/A   Overcast
9:56 AM 34.0 °F 24.6 °F 28.9 °F 82% 30.26 in - North 13.8 mph - N/A   Overcast
10:56 AM 34.0 °F 24.2 °F 30.0 °F 85% 30.26 in - North 15.0 mph - N/A   Overcast
11:38 AM 34.0 °F 24.2 °F 30.9 °F 89% 30.24 in - NNW 15.0 mph - N/A Snow Light Snow
11:56 AM 34.0 °F 23.4 °F 30.9 °F 89% 30.24 in - NNW 17.3 mph 21.9 mph N/A   Overcast
12:56 PM 34.0 °F 23.4 °F 33.1 °F 96% 30.23 in - NNW 17.3 mph 21.9 mph N/A Snow Light Snow
1:56 PM 35.1 °F 25.2 °F 34.0 °F 96% 30.21 in - NNW 16.1 mph - N/A Rain Light Rain
2:56 PM 36.0 °F 26.0 °F 34.0 °F 93% 30.20 in - North 17.3 mph - N/A   Overcast
3:56 PM 36.0 °F 26.7 °F 34.0 °F 93% 30.19 in - North 15.0 mph - N/A   Overcast
4:56 PM 37.0 °F 27.7 °F 34.0 °F 89% 30.19 in - North 16.1 mph - N/A   Overcast
5:56 PM 36.0 °F 26.0 °F 34.0 °F 93% 30.19 in - North 17.3 mph 23.0 mph N/A   Overcast
6:56 PM 36.0 °F 27.1 °F 33.1 °F 89% 30.21 in - NNW 13.8 mph 23.0 mph N/A   Overcast
7:56 PM 36.0 °F 26.3 °F 33.1 °F 89% 30.21 in - North 16.1 mph 20.7 mph N/A   Overcast
8:56 PM 36.0 °F 26.7 °F 33.1 °F 89% 30.21 in - NNW 15.0 mph - N/A   Overcast
9:56 PM 36.0 °F 25.6 °F 33.1 °F 89% 30.19 in - North 18.4 mph - N/A   Overcast
10:56 PM 36.0 °F 27.5 °F 33.1 °F 89% 30.19 in - North 12.7 mph - N/A   Overcast
11:56 PM 36.0 °F 27.5 °F 33.1 °F 89% 30.19 in - NNW 12.7 mph - N/A   Overcast